Location: American Canyon
(38.1966°N, 122.1514°W)
Time: 17:05:19
(UTC+00:00)

BREEZE-M DEB (TANK) - Pass Details

Date: 29 October 2020
Orbit: 312 x 13937 km, 49.6° (Epoch: 21 November)

Event Time Altitude Azimuth Distance (km) Brightness Sun altitude
Exits shadow 12:27:55 45° 309° (NW) 1,384 4.4 -24.9°
Maximum altitude 12:30:00 87° 37° (NE) 1,341 4.6 -24.5°
Drops below altitude 10° 12:49:12 10° 129° (SE) 8,173 9.4 -20.7°
Sets 13:01:10 0° 130° (SE) 11,704 10.4 -18.4°
